Temp
4 4 5 5 5 5 5 5 5 5 5 5 6 6 6 7 7 8 8 8 8 8 9 8 9 9 8 8 9 9 9 9 9 9 9 9 9 9 10 10 10 10 10 10 10
4 4 4 4 4 5 5 4 5 5 5 5 6 6 6 7 7 8 8 7 8 8 8 8 8 8 8 8 8 8 9 9 9 9 9 9 10 10 10 10 10 10 10 10 10
4 4 4 4 4 4 4 4 4 5 5 5 6 6 6 7 7 7 7 7 8 8 8 8 8 8 8 8 8 8 9 8 8 8 9 9 9 10 10 10 9 9 9 9 9
4 4 4 4 4 4 4 5 4 4 5 5 5 6 6 6 6 7 7 7 8 8 8 7 8 8 7 7 7 8 8 8 8 8 8 9 9 9 9 9 9 9 9 9 9
3 4 4 4 4 4 4 4 5 4 5 5 5 5 6 6 6 7 7 7 8 7 8 8 8 7 7 7 7 7 7 7 8 8 8 8 9 9 9 9 9 9 9 8 8
4 4 4 4 4 4 4 4 4 4 4 5 5 5 6 6 6 7 7 6 7 7 7 8 8 7 7 7 7 7 7 8 8 8 7 7 8 8 8 8 8 8 8 8 7
3 4 4 4 4 4 4 4 4 4 4 4 5 5 6 5 6 7 7 8 7 7 7 7 7 7 7 7 7 7 7 8 8 8 8 7 7 7 7 8 8 8 8 7 7
3 3 4 4 4 4 4 4 5 4 4 4 4 5 6 6 6 7 7 7 7 7 7 6 7 7 7 6 6 6 7 7 8 8 7 7 7 7 7 7 7 7 7 7 7
2 2 2 2 3 3 4 4 4 4 4 4 4 4 6 6 6 6 6 6 6 6 6 6 6 7 7 6 6 6 6 6 7 7 7 7 8 8 8 8 7 7 7 7 7
1 1 1 2 2 2 3 3 3 3 3 3 4 4 5 6 6 6 6 6 6 6 6 6 6 6 6 6 6 6 5 5 5 6 6 7 7 8 7 7 7 7 7 7 6
0 1 1 0 0 1 2 1 1 1 3 4 4 5 5 5 5 6 6 6 6 6 6 5 6 6 6 4 4 4 4 4 5 6 5 6 6 7 6 6 7 7 6 6 6
0 0 -1 0 0 0 0 1 1 1 2 3 4 4 6 5 6 6 5 5 6 6 5 5 5 6 5 5 4 4 4 4 4 5 5 5 5 6 6 6 6 6 6 6 6
-1 0 -1 -0 -0 -0 -1 -0 0 0 1 4 4 5 5 5 7 8 4 4 3 4 5 4 4 5 5 5 3 4 3 4 4 4 5 5 5 6 6 6 6 5 5 5 5
-1 -0 -0 -1 -1 -0 -1 -1 -1 1 0 3 4 4 5 6 5 6 5 4 2 3 3 3 3 4 4 4 3 3 3 3 3 4 4 4 3 4 4 5 5 4 4 4 4
-0 -0 -0 0 -0 -0 -1 -1 -1 -1 -2 3 2 3 4 4 4 4 4 3 3 3 2 3 2 3 3 3 3 3 3 3 3 3 3 3 3 4 4 4 4 4 3 3 4
-1 -1 -1 -1 -1 -2 -1 -2 -2 -2 -3 2 2 3 3 3 3 3 2 2 2 2 2 2 2 2 2 3 2 2 2 2 2 2 -0 3 3 3 3 3 3 4 4 4 4
-2 -1 -1 -1 -1 -2 -2 -3 -3 -4 -0 1 1 1 1 1 2 2 1 1 1 1 1 2 2 2 2 2 2 2 1 1 0 -1 -1 3 2 2 2 3 3 3 3 3 3
-3 -2 -2 -2 -2 -3 -3 -3 -4 -2 -2 -0 -0 -0 0 1 1 1 1 0 0 0 0 1 2 3 2 2 2 2 2 1 -0 -1 -1 1 1 3 3 3 2 2 2 2 2
-4 -3 -3 -3 -3 -3 -4 -4 -3 -3 -2 -1 0 -1 0 1 1 0 1 1 1 1 -0 1 1 2 2 2 2 2 2 2 2 -0 -2 1 2 2 2 2 2 1 1 1 1
-5 -4 -4 -4 -4 -4 -6 -4 -3 -3 -3 -3 -2 -2 -1 -0 -0 0 0 1 1 1 0 1 1 1 1 2 2 2 2 1 1 -1 -2 -1 0 2 2 2 1 1 1 0 -0
-6 -5 -5 -5 -5 -6 -6 -7 -4 -3 -4 -4 -3 -3 -2 -2 -1 -1 -0 0 0 1 1 1 0 1 1 1 1 1 1 1 1 1 -3 -4 -1 1 1 1 0 0 -0 -1 -1
-7 -7 -6 -6 -6 -6 -6 -5 -4 -4 -4 -4 -4 -4 -3 -3 -2 -2 -2 -1 -1 -0 -0 0 -0 -0 0 1 0 1 0 -0 -1 -1 -1 -2 -2 0 0 0 -0 -1 -1 -1 -1
-8 -7 -7 -7 -7 -6 -5 -5 -5 -4 -5 -5 -5 -4 -4 -3 -3 -2 -1 -2 -3 -2 -1 -1 -1 -1 -1 -0 -0 -0 -1 -1 -2 -2 -2 -4 -1 -0 -1 -1 -1 -1 -1 -1 -1
-8 -8 -8 -8 -7 -7 -7 -6 -6 -5 -5 -6 -5 -5 -4 -4 -3 -2 -2 -2 -3 -3 -2 -2 -2 -1 -2 -1 -1 -1 -1 -2 -3 -3 -3 -3 -2 -1 -1 -1 -1 -1 -1 -1 -1
-8 -8 -8 -8 -8 -7 -8 -7 -6 -6 -6 -6 -5 -5 -5 -5 -4 -3 -2 -2 -3 -3 -4 -3 -2 -3 -2 -2 -2 -2 -2 -3 -3 -3 -4 -2 -2 -2 -1 -1 -2 -2 -2 -2 -1
-9 -9 -9 -8 -7 -7 -7 -7 -6 -7 -7 -6 -7 -5 -5 -5 -4 -4 -3 -4 -3 -3 -3 -3 -3 -3 -3 -3 -3 -3 -3 -3 -3 -3 -3 -2 -2 -2 -2 -2 -2 -2 -2 -2 -2
-8 -9 -9 -8 -8 -7 -7 -7 -6 -7 -7 -7 -7 -7 -6 -5 -5 -4 -4 -5 -4 -4 -4 -4 -4 -3 -4 -3 -4 -4 -3 -2 -2 -3 -3 -4 -2 -3 -2 -2 -2 -2 -2 -2 -2
Height
3165 3164 3165 3164 3164 3163 3162 3160 3159 3157 3157 3155 3154 3153 3152 3150 3150 3146 3145 3145 3143 3141 3140 3138 3137 3137 3136 3136 3137 3136 3137 3135 3136 3135 3136 3136 3136 3137 3138 3139 3140 3141 3140 3141 3140
3162 3162 3162 3161 3161 3161 3160 3158 3157 3156 3154 3153 3152 3151 3150 3149 3149 3145 3144 3142 3141 3139 3138 3137 3136 3136 3135 3135 3136 3135 3134 3135 3134 3134 3134 3134 3134 3134 3135 3136 3138 3139 3139 3139 3139
3158 3158 3158 3157 3157 3156 3156 3156 3155 3153 3151 3151 3149 3149 3149 3147 3148 3145 3142 3140 3139 3138 3136 3136 3135 3135 3134 3134 3135 3134 3133 3133 3133 3133 3133 3132 3133 3132 3132 3133 3133 3135 3136 3138 3138
3154 3154 3155 3154 3153 3153 3153 3154 3152 3150 3148 3148 3148 3146 3146 3146 3147 3144 3141 3139 3137 3135 3134 3134 3134 3134 3133 3132 3132 3132 3132 3132 3131 3131 3131 3131 3131 3130 3130 3131 3131 3131 3133 3134 3135
3150 3150 3150 3150 3149 3150 3150 3150 3149 3147 3145 3145 3145 3144 3143 3145 3142 3143 3141 3138 3136 3134 3132 3133 3133 3132 3131 3131 3131 3130 3130 3130 3130 3129 3128 3128 3128 3127 3125 3126 3127 3128 3128 3129 3130
3146 3146 3146 3145 3145 3146 3146 3146 3144 3143 3141 3141 3141 3141 3141 3140 3138 3137 3139 3137 3134 3132 3130 3129 3129 3129 3129 3129 3128 3128 3128 3128 3127 3127 3125 3124 3124 3123 3123 3123 3123 3123 3124 3125 3125
3140 3141 3141 3141 3140 3139 3140 3140 3139 3137 3136 3136 3136 3136 3137 3137 3135 3134 3132 3133 3131 3129 3128 3126 3126 3127 3126 3126 3125 3125 3123 3124 3124 3124 3122 3122 3119 3119 3121 3121 3120 3121 3121 3119 3119
3133 3134 3134 3135 3135 3135 3134 3133 3134 3132 3131 3131 3131 3131 3130 3133 3132 3131 3128 3127 3127 3125 3124 3123 3123 3123 3122 3123 3123 3122 3121 3119 3121 3119 3118 3117 3113 3116 3117 3117 3118 3119 3119 3118 3117
3127 3128 3129 3129 3128 3129 3130 3128 3126 3127 3127 3127 3126 3127 3127 3127 3129 3127 3125 3123 3122 3121 3121 3120 3120 3120 3119 3119 3120 3119 3118 3117 3115 3114 3114 3113 3110 3111 3111 3112 3114 3116 3116 3115 3115
3122 3122 3122 3122 3122 3121 3123 3122 3120 3120 3122 3122 3120 3125 3124 3123 3124 3124 3123 3120 3119 3118 3118 3119 3118 3117 3117 3117 3117 3116 3115 3114 3112 3112 3110 3109 3108 3107 3107 3108 3111 3112 3113 3111 3111
3115 3115 3114 3114 3114 3115 3117 3115 3117 3116 3116 3118 3116 3116 3118 3120 3117 3120 3118 3117 3115 3114 3113 3113 3113 3111 3116 3116 3115 3114 3112 3111 3110 3110 3107 3106 3105 3106 3104 3105 3106 3107 3107 3107 3106
3108 3109 3110 3110 3110 3109 3111 3112 3110 3110 3103 3109 3109 3104 3109 3108 3105 3111 3112 3111 3111 3110 3110 3109 3103 3109 3109 3110 3111 3110 3108 3107 3107 3106 3105 3102 3100 3102 3102 3102 3103 3104 3102 3100 3100
3102 3103 3103 3103 3103 3107 3106 3108 3106 3108 3102 3094 3100 3097 3102 3101 3094 3103 3103 3101 3102 3102 3104 3101 3102 3104 3103 3103 3103 3104 3104 3104 3104 3103 3101 3097 3093 3096 3097 3097 3097 3097 3095 3094 3093
3095 3097 3098 3097 3102 3101 3102 3102 3104 3104 3099 3088 3091 3089 3092 3092 3087 3091 3095 3096 3095 3096 3099 3095 3094 3097 3099 3096 3100 3097 3100 3099 3099 3099 3097 3096 3087 3087 3091 3092 3092 3090 3088 3088 3088
3088 3089 3091 3092 3093 3095 3098 3097 3099 3101 3102 3091 3087 3086 3087 3089 3085 3086 3089 3088 3086 3088 3094 3088 3091 3092 3092 3094 3095 3092 3094 3094 3094 3093 3093 3091 3094 3081 3083 3084 3084 3084 3083 3082 3081
3082 3083 3086 3088 3088 3092 3095 3096 3097 3102 3090 3086 3085 3085 3085 3084 3083 3083 3085 3086 3084 3084 3083 3081 3087 3088 3089 3091 3092 3092 3091 3091 3089 3089 3086 3084 3086 3074 3078 3079 3079 3078 3076 3076 3074
3075 3076 3079 3082 3084 3088 3093 3095 3098 3092 3084 3083 3083 3083 3082 3081 3081 3081 3080 3081 3081 3081 3077 3077 3074 3078 3084 3085 3088 3089 3088 3088 3086 3084 3079 3077 3078 3071 3074 3076 3077 3075 3074 3072 3071
3069 3071 3073 3076 3079 3081 3087 3092 3087 3077 3079 3082 3081 3079 3080 3079 3079 3078 3076 3074 3077 3077 3077 3074 3070 3070 3072 3073 3077 3080 3084 3082 3081 3080 3077 3076 3071 3068 3069 3072 3073 3072 3072 3071 3070
3063 3065 3069 3070 3072 3076 3081 3080 3072 3073 3076 3078 3078 3079 3078 3077 3076 3077 3074 3071 3073 3075 3073 3073 3071 3070 3070 3070 3073 3075 3074 3078 3076 3075 3074 3071 3066 3065 3066 3067 3070 3070 3069 3069 3069
3058 3059 3063 3063 3067 3069 3071 3067 3067 3071 3074 3075 3077 3077 3076 3075 3075 3074 3073 3071 3069 3071 3072 3069 3069 3069 3070 3071 3070 3070 3072 3073 3073 3073 3072 3063 3063 3059 3061 3063 3065 3067 3066 3065 3065
3051 3053 3058 3058 3062 3064 3060 3060 3062 3066 3070 3074 3073 3073 3072 3073 3075 3073 3070 3070 3068 3068 3068 3066 3067 3067 3068 3070 3071 3069 3068 3068 3068 3067 3065 3065 3058 3058 3059 3061 3063 3063 3062 3061 3062
3044 3048 3052 3055 3056 3055 3054 3056 3060 3062 3065 3067 3068 3067 3067 3070 3071 3072 3069 3065 3065 3067 3066 3065 3063 3063 3064 3065 3068 3066 3066 3065 3064 3063 3061 3060 3048 3055 3056 3058 3059 3059 3058 3057 3057
3041 3044 3047 3050 3048 3048 3050 3053 3055 3057 3059 3063 3063 3064 3064 3064 3067 3068 3065 3066 3066 3065 3064 3063 3060 3060 3060 3063 3062 3064 3063 3062 3062 3061 3059 3060 3046 3052 3053 3055 3055 3054 3052 3052 3051
3037 3040 3042 3043 3042 3044 3046 3048 3050 3052 3052 3057 3059 3060 3060 3059 3060 3060 3061 3059 3061 3062 3061 3062 3059 3057 3057 3060 3061 3062 3061 3061 3060 3060 3058 3049 3043 3046 3050 3049 3048 3046 3045 3044 3044
3031 3033 3036 3037 3038 3039 3040 3042 3044 3045 3048 3051 3052 3054 3057 3054 3055 3055 3056 3055 3055 3055 3057 3057 3053 3054 3053 3054 3055 3054 3052 3053 3052 3052 3052 3037 3039 3038 3040 3040 3037 3037 3037 3036 3036
3023 3027 3031 3033 3036 3036 3035 3034 3039 3042 3045 3045 3048 3048 3050 3049 3050 3051 3051 3052 3050 3051 3051 3051 3049 3050 3048 3049 3049 3045 3045 3044 3043 3041 3040 3034 3024 3033 3032 3031 3030 3030 3028 3028 3028
3018 3023 3026 3027 3029 3030 3030 3032 3034 3038 3038 3039 3042 3042 3043 3045 3046 3046 3045 3045 3046 3044 3045 3047 3047 3046 3042 3044 3043 3036 3036 3036 3033 3033 3032 3027 3022 3028 3026 3025 3024 3024 3022 3021 3020
Wind_Speed
20 19 20 20 21 21 22 21 23 22 24 22 20 20 18 16 16 14 14 12 11 12 9 9 10 8 4 7 10 12 9 5 5 4 1 1 1 4 6 8 9 10 11 11 13
23 23 24 22 23 24 25 24 24 25 26 24 21 20 18 16 17 12 9 12 13 12 9 9 10 8 6 8 12 11 9 7 7 4 2 7 8 9 11 9 9 11 12 13 13
25 26 26 25 26 26 27 28 26 25 27 28 21 20 18 16 15 13 13 12 13 14 13 12 11 9 9 12 13 13 13 11 10 8 8 7 11 14 14 13 13 11 11 11 8
29 28 28 28 29 29 29 30 30 28 28 30 26 20 17 15 15 18 14 13 13 12 12 13 10 12 10 12 13 12 14 13 13 14 14 14 13 14 17 16 17 19 18 15 11
31 31 31 31 32 32 31 30 33 32 30 29 29 23 16 15 17 19 16 15 14 12 12 13 13 11 12 13 16 14 14 16 16 16 18 18 18 19 21 21 21 20 20 18 14
32 31 32 33 33 36 35 33 33 35 32 29 28 24 23 20 20 17 21 21 18 14 14 14 12 13 12 11 15 19 20 20 18 16 18 18 17 18 17 17 18 19 19 18 19
34 32 28 26 34 32 36 36 34 36 33 29 29 28 25 19 21 20 21 26 19 17 14 16 13 12 14 10 15 16 21 22 23 24 25 25 27 24 20 19 18 16 14 17 17
27 28 32 34 33 27 28 34 31 31 31 30 30 32 29 23 23 21 17 16 18 16 15 16 15 14 16 16 16 17 18 18 8 12 12 14 26 25 24 20 16 13 12 12 14
32 36 35 36 34 31 30 33 40 37 29 33 32 29 32 22 19 18 17 17 16 15 15 13 14 15 17 15 15 15 15 13 13 8 10 15 20 21 25 24 22 18 17 15 17
42 41 40 39 35 31 32 33 39 38 37 34 30 27 17 18 21 25 28 24 19 17 17 16 17 18 16 14 14 8 9 15 18 13 16 19 17 11 19 22 19 20 19 19 20
41 41 41 32 37 38 33 31 28 32 37 33 32 32 34 34 40 31 28 28 25 22 21 21 23 24 17 14 14 18 19 19 18 14 20 19 17 15 17 19 21 22 22 25 25
33 31 37 35 34 31 32 31 32 38 44 37 37 43 35 30 37 35 33 30 28 27 27 27 32 24 20 19 21 21 22 23 20 19 22 24 25 21 20 22 23 23 25 28 31
36 38 30 27 28 30 23 25 33 34 41 46 38 40 27 29 39 33 33 32 29 29 28 31 28 18 17 23 22 21 23 23 26 25 26 28 34 30 28 28 25 21 25 31 36
35 38 37 32 31 31 36 29 23 28 26 41 26 22 15 16 26 24 27 35 35 33 29 28 27 31 28 28 21 25 21 17 16 18 19 22 15 23 19 22 30 16 19 21 23
34 34 24 26 23 16 14 13 14 14 4 13 10 12 11 12 16 11 12 31 37 38 32 28 12 11 17 17 17 20 18 20 20 20 20 20 18 21 15 11 18 14 8 10 14
29 29 26 25 20 17 10 10 8 5 10 6 9 10 15 14 16 18 14 17 23 27 32 39 36 24 18 17 12 12 13 13 18 15 8 20 19 11 10 5 12 14 17 23 22
26 25 23 22 23 21 15 13 8 10 5 4 10 13 15 16 16 20 22 23 21 12 21 25 35 39 37 32 26 20 12 4 3 3 5 8 10 19 15 16 13 18 21 18 16
23 21 22 21 24 25 20 20 17 11 17 4 5 10 13 15 18 19 23 28 23 20 19 9 6 11 16 30 35 32 28 10 6 4 3 8 7 6 9 14 20 17 11 8 9
22 22 21 23 24 27 26 28 24 27 15 10 21 20 22 15 18 20 18 28 24 19 16 6 8 8 12 11 17 23 22 26 23 9 3 9 18 21 21 20 15 12 8 4 3
24 24 20 24 23 25 29 41 34 31 19 20 23 12 14 12 15 19 17 11 17 21 15 14 14 14 8 7 10 20 19 11 9 3 4 6 12 13 13 16 13 9 15 12 6
19 24 22 19 19 25 36 38 39 41 25 23 27 28 30 27 22 19 19 11 8 13 20 20 17 13 16 13 11 12 15 13 11 12 4 2 7 5 7 8 11 12 11 7 11
23 18 17 17 21 29 37 39 37 37 17 33 27 25 26 25 23 24 14 21 5 7 13 15 9 12 15 16 12 13 14 13 6 5 9 6 23 20 16 14 11 7 15 16 18
23 21 18 15 23 28 32 34 34 36 30 24 22 20 25 27 25 22 25 15 11 19 10 8 8 4 2 6 9 13 17 14 6 8 13 6 17 13 3 6 13 20 20 21 26
26 21 23 21 25 24 27 32 34 33 33 31 31 19 18 22 27 31 27 25 29 16 18 16 16 16 13 14 17 22 22 16 22 13 18 32 39 35 31 27 29 27 23 24 23
25 27 24 19 29 30 29 28 27 30 30 26 29 34 24 20 26 25 27 33 24 16 24 19 24 26 27 24 24 30 35 31 27 28 21 44 40 42 35 30 26 19 19 19 22
29 29 27 25 20 25 27 33 31 27 26 25 22 26 37 32 32 30 24 20 23 27 20 21 23 21 24 24 25 36 34 33 33 33 35 40 48 34 26 21 18 21 24 25 27
24 27 23 23 23 28 32 30 29 29 31 30 24 25 27 28 31 31 36 30 26 25 25 23 24 27 26 24 25 29 24 24 27 24 23 30 31 14 18 19 20 21 24 24 25
Wind_Direction
270 273 277 282 287 291 294 300 303 307 311 315 319 315 319 324 333 333 316 316 309 305 290 273 274 267 267 253 252 248 238 178 149 106 88 340 173 234 231 222 231 254 269 296 301
269 273 276 281 284 288 291 294 299 303 305 310 315 314 314 322 334 351 359 340 324 312 303 284 269 257 223 227 236 237 236 213 219 187 244 251 260 261 263 259 268 281 299 307 301
268 271 275 279 282 283 286 291 294 297 302 305 308 309 312 319 328 337 333 330 326 322 317 292 285 273 235 231 235 240 242 241 247 259 248 259 246 253 265 280 288 290 308 308 299
270 272 275 277 280 282 285 289 293 295 297 301 303 303 308 310 322 325 335 328 325 326 323 313 301 275 251 229 227 247 246 244 255 262 257 252 240 242 257 266 272 280 285 288 286
272 274 276 278 280 283 286 288 289 291 294 299 301 304 299 291 302 309 321 326 319 318 312 310 306 288 260 253 242 245 248 249 257 265 261 261 263 262 260 261 265 269 280 291 290
273 275 279 280 286 287 287 286 288 290 292 296 295 301 302 302 294 295 304 311 303 302 299 300 300 287 274 256 261 256 260 262 259 259 258 265 263 252 262 271 264 264 275 284 296
268 273 281 288 298 290 283 284 281 284 286 290 290 295 295 308 294 298 296 303 294 283 281 284 288 280 277 269 262 264 268 262 265 273 264 260 260 259 269 268 269 274 286 299 303
264 260 274 286 288 289 303 291 284 279 279 285 291 292 290 292 292 290 299 308 303 283 276 274 280 274 267 264 265 271 274 281 284 282 288 272 267 270 269 267 267 273 286 295 306
259 276 278 282 283 273 286 289 278 285 282 291 290 294 296 290 283 284 300 296 293 283 273 265 267 266 267 264 264 268 267 275 275 288 282 290 288 283 264 264 260 264 275 284 293
271 273 275 284 282 274 280 283 274 279 284 294 285 287 288 295 283 285 300 298 286 266 261 267 269 267 262 260 256 262 256 276 279 280 277 280 286 275 281 272 266 259 267 271 276
270 269 272 280 283 279 276 292 278 280 281 279 275 279 287 290 288 281 281 291 279 267 268 276 264 262 272 271 261 268 276 283 277 281 282 276 271 258 265 274 269 276 281 274 276
269 273 275 266 266 262 264 267 271 283 282 275 267 282 289 281 278 274 272 270 268 260 266 267 264 268 265 256 257 256 279 278 283 273 270 272 271 261 258 259 263 269 269 268 267
263 257 257 250 253 260 262 270 273 282 289 278 275 274 282 272 276 272 253 256 256 257 254 260 262 265 257 249 250 253 279 273 270 270 273 286 284 282 278 270 261 269 268 265 266
265 268 263 288 290 276 281 288 298 299 296 290 295 276 270 262 268 273 247 243 250 256 259 268 270 263 261 253 251 264 266 261 265 278 281 281 292 284 273 263 277 264 269 264 269
265 272 272 268 278 279 281 266 245 276 304 285 256 261 257 250 263 276 235 241 246 249 250 248 257 229 238 255 253 264 258 258 268 279 282 275 273 282 280 226 274 273 288 308 298
258 260 262 263 257 254 242 220 224 231 246 250 239 241 257 259 262 256 244 240 253 250 249 255 250 240 239 241 246 256 252 258 267 273 256 262 236 282 252 280 273 267 291 309 311
255 255 254 249 243 237 220 212 208 218 256 264 243 241 250 262 266 265 259 256 254 250 252 261 256 256 250 253 248 251 251 280 284 217 241 208 233 245 271 278 287 290 307 313 311
255 255 248 244 236 232 220 214 218 242 236 240 224 230 264 266 273 278 263 252 244 249 257 275 291 239 248 242 242 245 236 210 234 207 248 211 249 237 240 281 295 309 309 324 316
251 247 248 243 235 231 221 213 227 241 247 257 259 274 271 286 266 283 275 256 254 254 220 249 256 226 237 232 229 231 223 238 246 255 263 234 250 263 265 274 284 299 322 354 343
246 245 244 241 236 226 215 228 236 237 243 246 263 279 288 321 273 257 259 278 254 238 236 253 271 250 235 229 217 227 238 202 209 222 244 244 241 244 271 279 280 295 307 314 299
251 243 241 239 231 222 218 228 240 242 237 246 257 262 267 277 289 277 247 239 230 249 241 244 241 242 254 260 246 225 224 229 238 236 203 274 258 259 256 254 265 277 298 302 295
237 243 237 236 222 223 230 238 248 249 251 241 250 258 265 271 270 263 293 251 203 257 242 241 253 253 249 254 252 243 260 260 248 247 246 262 265 259 281 281 261 270 314 307 296
240 241 236 234 230 236 244 247 249 253 255 241 250 260 265 264 265 265 264 269 252 269 282 257 251 249 245 270 272 273 260 242 235 280 262 253 256 258 226 237 264 285 296 291 291
239 238 237 235 245 248 251 252 256 259 260 247 244 252 250 262 264 261 260 255 263 259 291 293 277 270 263 277 281 277 272 271 291 278 279 263 275 264 275 281 282 286 272 278 283
234 237 237 222 240 253 253 254 259 260 258 260 250 246 246 258 258 258 260 260 259 267 265 278 274 281 285 280 279 276 278 281 282 279 253 275 272 279 286 291 291 284 280 280 282
226 234 239 242 245 248 249 252 250 261 265 264 256 261 247 250 249 261 271 268 272 261 270 273 264 266 269 275 280 280 278 279 281 278 271 276 278 287 290 289 272 279 285 287 281
236 230 242 242 239 247 252 261 268 274 269 263 249 255 254 255 254 258 262 271 278 272 269 259 257 273 274 277 280 277 282 283 288 283 277 273 280 300 291 278 281 282 279 282 282